"Pseudo-MPEC" for RdSH237

Created 2023 Dec 9 9:22:28 UT using Find_Orb

Click here for an explanation of pseudo-MPECs

 
 Astrometry: 
     RdSH237*KB2023 11 18C`vAstrometryvsrp)]s1$M!xM`R+e4l[WT*N%kKeAG9mqB*j./=Y89
     RdSH237 KB2023 11 18/aDo:O[:cM0yredacted;_)gDNl/I9click0yhereGT-0qq;feE!Y89
     RdSH237 KB2023 11 18Zb(jaAcD.-LTpuGs81r9e%I6forutR;:explanationQt9EU@'y)Y89

Station data:
(Y89) Proxima Centauri Observatory, Valdin  (N42.222443 W6.988110)  Spain.

Orbital elements:  RdSH237
   Perihelion 2028 Feb 18.06365 +/- 1766 TT =  1:31:39 (JD 2461819.56365)
Epoch 2023 Nov 19.0 TT = JDT 2460267.5   Sa: 0.8907              AutoNEOCP
M 317.79974713 +/- 60               (J2000 ecliptic)
n   0.02718976 +/- 0.0649           Peri.  109.48296 +/- 90
a  10.9529817 +/- 17.4              Node    13.80895 +/- 31
e   0.3287803 +/- 0.225             Incl.   19.22606 +/- 46
P  36.25                   H 11.62  G  0.15   U 10.9  SR
q 7.35185637 +/- 3.34    Q 14.5541072 +/- 258
From 3 observations 2023 Nov. 18 (42.7 min); mean residual 0".35
Residuals in arcseconds: 
231118 Y89  .01+  .36+    231118 Y89  .01-  .71-    231118 Y89  .00   .35+    

Ephemerides (geocentric):
Date (UTC) HH   RA             Dec           delta  r     elong  mag " sig PA
---- --------  ------------   ------------  ------ ------ -----  --- --------
2023 12 09 09  02 25 49.386   +26 49 27.59  8.2009 9.0204 144.4 21.3 4113  82
2023 12 09 10  02 25 48.737   +26 49 24.32  8.2012 9.0203 144.4 21.3 4127  82
2023 12 09 11  02 25 48.089   +26 49 21.05  8.2015 9.0202 144.3 21.3 4141  82
2023 12 09 12  02 25 47.442   +26 49 17.79  8.2019 9.0201 144.3 21.3 4156  82
2023 12 09 13  02 25 46.795   +26 49 14.52  8.2022 9.0201 144.3 21.3 4170  82
2023 12 09 14  02 25 46.149   +26 49 11.25  8.2025 9.0200 144.2 21.3 4184  82
2023 12 09 15  02 25 45.504   +26 49 07.99  8.2028 9.0199 144.2 21.3 4198  82
2023 12 09 16  02 25 44.859   +26 49 04.72  8.2031 9.0198 144.1 21.3 4213  82
2023 12 09 17  02 25 44.215   +26 49 01.46  8.2034 9.0198 144.1 21.3 4227  82
2023 12 09 18  02 25 43.571   +26 48 58.19  8.2038 9.0197 144.1 21.3 4241  82
2023 12 09 19  02 25 42.928   +26 48 54.93  8.2041 9.0196 144.0 21.3 4256  82
2023 12 09 20  02 25 42.286   +26 48 51.67  8.2044 9.0196 144.0 21.3 4270  82
2023 12 09 21  02 25 41.645   +26 48 48.40  8.2047 9.0195 143.9 21.3 4285  82
2023 12 09 22  02 25 41.004   +26 48 45.14  8.2050 9.0194 143.9 21.3 4299  82
2023 12 09 23  02 25 40.363   +26 48 41.88  8.2054 9.0193 143.8 21.3 4314  82
2023 12 10 00  02 25 39.724   +26 48 38.61  8.2057 9.0193 143.8 21.3 4328  82
2023 12 10 01  02 25 39.085   +26 48 35.35  8.2060 9.0192 143.8 21.3 4343  82
2023 12 10 02  02 25 38.447   +26 48 32.09  8.2063 9.0191 143.7 21.3 4358  82
2023 12 10 03  02 25 37.809   +26 48 28.83  8.2067 9.0190 143.7 21.3 4372  82
2023 12 10 04  02 25 37.172   +26 48 25.57  8.2070 9.0190 143.6 21.3 4387  82
2023 12 10 05  02 25 36.535   +26 48 22.31  8.2073 9.0189 143.6 21.3 4402  82
2023 12 10 06  02 25 35.900   +26 48 19.05  8.2076 9.0188 143.5 21.3 4417  82
2023 12 10 07  02 25 35.265   +26 48 15.79  8.2079 9.0188 143.5 21.3 4432  82
2023 12 10 08  02 25 34.630   +26 48 12.53  8.2083 9.0187 143.5 21.3 4446  82
2023 12 10 09  02 25 33.996   +26 48 09.28  8.2086 9.0186 143.4 21.3 4461  82
2023 12 10 10  02 25 33.363   +26 48 06.02  8.2089 9.0185 143.4 21.3 4476  82
2023 12 10 11  02 25 32.731   +26 48 02.76  8.2092 9.0185 143.3 21.3 4491  82
2023 12 10 12  02 25 32.099   +26 47 59.50  8.2096 9.0184 143.3 21.3 4506  82
2023 12 10 13  02 25 31.468   +26 47 56.25  8.2099 9.0183 143.3 21.3 4521  82
2023 12 10 14  02 25 30.837   +26 47 52.99  8.2102 9.0182 143.2 21.3 4536  82
2023 12 10 15  02 25 30.208   +26 47 49.74  8.2106 9.0182 143.2 21.3 4551  82
2023 12 10 16  02 25 29.578   +26 47 46.48  8.2109 9.0181 143.1 21.3 4567  82
2023 12 10 17  02 25 28.950   +26 47 43.23  8.2112 9.0180 143.1 21.3 4582  82
2023 12 10 18  02 25 28.322   +26 47 39.97  8.2115 9.0180 143.0 21.3 4597  82
2023 12 10 19  02 25 27.695   +26 47 36.72  8.2119 9.0179 143.0 21.3 4612  82
2023 12 10 20  02 25 27.068   +26 47 33.47  8.2122 9.0178 143.0 21.3 4627  82
2023 12 10 21  02 25 26.442   +26 47 30.22  8.2125 9.0177 142.9 21.3 4643  82
2023 12 10 22  02 25 25.817   +26 47 26.96  8.2129 9.0177 142.9 21.3 4658  82
2023 12 10 23  02 25 25.192   +26 47 23.71  8.2132 9.0176 142.8 21.3 4673  82
2023 12 11 00  02 25 24.568   +26 47 20.46  8.2135 9.0175 142.8 21.3 4689  82
2023 12 11 01  02 25 23.945   +26 47 17.21  8.2139 9.0174 142.7 21.3 4704  82
2023 12 11 02  02 25 23.323   +26 47 13.96  8.2142 9.0174 142.7 21.3 4720  82
2023 12 11 03  02 25 22.701   +26 47 10.71  8.2145 9.0173 142.7 21.3 4735  82
2023 12 11 04  02 25 22.079   +26 47 07.47  8.2149 9.0172 142.6 21.3 4751  82
2023 12 11 05  02 25 21.459   +26 47 04.22  8.2152 9.0171 142.6 21.3 4767  82
2023 12 11 06  02 25 20.839   +26 47 00.97  8.2155 9.0171 142.5 21.3 4782  82
2023 12 11 07  02 25 20.219   +26 46 57.72  8.2159 9.0170 142.5 21.3 4798  82
2023 12 11 08  02 25 19.601   +26 46 54.48  8.2162 9.0169 142.4 21.3 4814  82